Wind_Speed
16 14 14 13 13 13 12 12 11 10 10 11 12 12 12 11 10 9 9 10 10 10 9 8 9 9 9 9 10 10 10 10 11 12 11 10 9 9 10 10 10 12 13 14 15 16 15 14 14 15 15 16 17 16 15 16 18 18 18 18 18 18 17
15 15 15 15 13 12 11 10 9 8 8 10 11 12 12 12 11 11 10 10 10 10 9 9 10 11 12 12 12 11 11 11 12 12 13 12 11 12 12 12 11 12 13 14 14 14 14 14 14 15 16 17 17 17 17 18 19 19 18 18 18 18 18
13 15 15 14 13 12 11 10 8 7 7 9 9 10 11 12 12 13 12 12 12 11 11 10 11 12 13 14 13 13 12 12 12 13 14 14 14 15 15 15 14 13 13 13 13 13 13 14 15 15 16 16 16 16 17 18 18 19 18 17 18 19 19
12 14 14 13 12 12 11 10 9 9 8 9 10 11 12 12 13 14 14 14 14 14 13 13 13 13 14 15 15 14 13 13 13 14 15 15 16 17 17 16 15 14 12 12 12 12 13 13 14 15 15 15 15 15 16 17 18 18 18 17 17 18 18
12 13 12 12 12 11 10 9 9 10 9 10 11 11 12 13 14 15 15 16 16 16 15 14 14 14 15 16 16 16 14 13 14 14 15 16 16 17 17 16 15 14 12 12 11 12 12 12 13 14 15 15 16 16 16 16 16 17 17 17 17 17 18
12 13 12 12 13 11 10 10 9 9 9 11 12 12 13 14 14 14 15 16 16 16 16 15 15 15 16 17 17 17 15 14 14 14 14 15 15 16 17 16 15 14 12 12 11 11 12 12 13 14 14 15 15 15 15 15 15 15 16 16 16 17 17
14 13 12 13 13 13 11 10 10 9 10 11 12 11 12 11 11 12 12 13 14 14 15 16 16 16 17 17 16 16 15 14 14 14 14 14 14 14 14 13 12 11 11 11 11 11 12 13 13 14 14 14 14 14 14 14 14 14 15 15 16 16 16
15 14 13 14 15 14 13 12 11 11 11 10 9 9 9 8 8 9 10 12 12 12 13 14 15 16 16 16 15 15 15 15 14 14 14 13 12 12 11 11 10 10 10 10 11 11 12 13 13 14 14 14 14 13 13 13 14 14 14 15 15 15 15
17 16 15 16 17 16 16 15 12 12 10 9 9 9 8 8 8 8 10 11 12 12 12 13 14 14 14 14 15 15 16 16 16 16 16 15 14 13 12 12 11 11 11 11 11 11 11 12 12 13 14 14 14 13 13 13 13 14 14 14 14 14 13
19 18 17 19 20 20 18 17 14 13 11 10 11 11 10 10 9 9 10 11 12 12 12 12 12 13 13 14 14 15 16 17 17 17 17 17 17 16 15 15 14 13 13 12 12 11 11 12 12 12 13 13 14 14 14 14 14 13 13 13 13 13 13
20 20 19 20 21 22 21 19 16 14 13 13 13 13 12 12 11 10 10 11 11 11 11 11 11 11 12 12 13 14 15 16 16 17 17 17 17 17 16 15 14 14 13 13 12 12 12 12 12 12 13 13 13 14 14 15 15 14 14 14 14 14 14
21 23 22 22 22 23 23 21 19 17 16 16 15 15 14 13 12 12 11 11 11 11 10 10 10 10 10 10 11 12 13 14 15 16 17 17 17 17 16 15 14 14 14 13 13 13 13 12 12 13 14 14 14 14 14 15 15 15 15 15 15 15 15
22 25 26 25 23 24 24 23 21 20 18 17 17 16 16 15 14 14 13 13 13 12 12 12 12 11 11 10 10 11 12 13 14 15 16 17 17 17 17 16 16 16 15 15 15 15 14 14 14 14 15 16 16 16 16 16 16 16 16 16 16 16 16
24 26 28 27 25 24 24 23 22 21 19 19 18 17 17 16 15 15 15 14 14 14 14 14 14 14 13 12 11 12 12 13 13 14 14 15 16 17 18 18 18 18 18 17 17 17 16 16 16 16 16 17 17 17 17 18 18 17 17 18 18 17 17
25 27 27 26 26 25 25 24 22 21 20 19 18 17 17 17 16 16 16 15 15 14 14 14 15 15 15 14 12 11 11 11 12 13 14 15 16 17 18 18 19 19 19 19 19 19 18 18 18 18 18 18 19 19 19 19 19 20 19 19 19 18 18
25 27 27 26 25 26 26 26 24 22 21 19 18 18 18 18 18 18 18 17 16 15 15 14 14 15 15 14 13 12 11 11 12 13 14 15 16 17 18 18 19 20 20 21 21 20 20 20 19 20 20 20 21 21 21 21 21 21 21 20 20 20 20
26 27 26 26 27 28 28 27 25 23 21 20 20 20 20 20 20 20 19 18 17 17 16 15 14 14 14 14 14 13 13 13 13 14 14 15 15 16 17 18 19 20 21 21 22 22 22 22 22 22 22 22 23 23 24 24 23 23 23 23 23 23 24
26 27 28 29 30 29 29 27 25 24 23 23 22 22 22 22 22 22 21 19 19 20 18 16 15 14 14 14 14 14 14 14 14 14 14 14 14 15 17 18 19 21 22 23 23 24 24 24 24 24 24 24 24 25 26 26 26 26 26 25 25 26 26
23 25 27 29 30 29 28 26 25 25 24 24 24 24 24 23 23 23 22 21 21 21 20 18 16 15 14 14 14 15 15 15 15 14 14 14 14 16 17 19 21 22 23 24 25 26 27 27 26 26 26 26 26 27 28 28 28 29 28 27 27 26 26
20 22 23 25 26 27 26 25 25 25 25 25 26 26 25 25 24 23 22 22 22 21 20 19 17 14 13 14 15 16 17 17 16 16 16 16 17 18 20 21 23 25 26 27 28 28 29 30 29 29 29 28 28 28 29 30 29 29 29 29 29 28 29
21 21 20 21 23 24 25 25 25 25 25 26 26 26 26 25 24 23 23 22 22 21 20 19 18 16 15 16 16 17 18 18 19 19 20 20 21 22 23 24 25 27 28 28 29 31 32 32 32 31 31 32 31 31 31 31 31 30 30 31 31 31 31
20 20 20 21 22 24 25 25 26 25 25 25 27 27 26 25 25 26 25 24 24 23 23 22 21 21 21 21 20 20 21 22 22 23 24 25 26 27 28 29 28 29 29 29 30 31 31 32 33 33 33 33 33 33 33 33 33 32 32 32 32 32 32
17 18 19 20 22 23 24 25 26 27 25 24 25 27 27 26 27 28 27 27 26 26 25 25 25 25 25 26 25 25 25 26 26 27 28 29 31 32 33 33 31 31 31 32 32 32 31 31 32 32 32 34 34 35 35 35 34 34 34 34 35 35 35
17 17 18 19 21 22 23 24 26 28 26 23 23 25 25 25 26 27 28 28 28 28 28 28 29 28 29 30 30 30 30 30 30 31 31 32 34 35 37 36 33 31 32 32 32 33 33 33 33 32 31 33 36 37 37 36 35 35 35 36 37 38 38
20 20 21 22 22 23 24 26 27 28 28 27 26 25 25 25 26 26 28 28 29 30 31 31 32 33 33 33 33 33 33 33 34 35 35 35 36 37 37 36 34 33 33 33 34 34 34 35 36 35 35 36 38 37 35 35 36 36 36 37 38 38 39
24 25 25 26 26 26 28 29 29 29 31 32 30 28 27 27 28 29 30 31 32 33 33 34 35 36 37 36 36 36 36 37 37 37 38 38 38 40 41 40 39 38 38 38 38 37 36 35 35 36 37 38 38 37 34 33 34 35 36 36 37 37 38
28 29 29 30 29 30 31 32 31 31 31 32 31 31 30 31 32 33 33 34 35 35 36 37 38 40 40 39 39 39 39 39 40 40 40 40 41 44 44 42 41 42 42 42 41 41 39 37 35 36 36 38 39 38 36 35 34 34 35 36 36 37 38
32 33 34 34 33 33 34 35 34 34 34 35 36 36 36 36 37 37 37 38 39 39 39 41 42 44 44 44 42 41 40 39 39 40 41 41 42 44 43 43 43 45 46 45 44 43 43 42 41 40 39 39 41 40 38 37 36 36 36 37 38 39 40
36 37 38 38 38 37 37 37 38 38 39 39 40 40 40 41 41 41 41 42 43 43 42 43 45 47 47 46 44 43 41 40 40 42 43 43 45 46 46 46 47 48 48 48 46 45 45 45 44 43 42 41 42 42 41 40 40 39 39 40 41 42 43
40 41 42 42 42 42 42 42 42 41 41 42 43 44 45 44 43 44 44 44 44 44 43 44 45 46 46 45 44 44 44 45 45 46 47 48 48 49 49 50 50 50 50 50 49 47 45 44 43 43 43 44 44 45 45 45 44 44 43 44 44 45 46
43 43 44 45 44 44 45 45 44 44 44 46 48 48 48 47 46 46 46 45 45 45 45 46 47 48 47 47 48 49 49 49 50 50 50 50 50 51 51 51 51 50 50 50 50 48 47 46 45 45 46 47 47 47 47 47 46 46 45 45 46 47 47
44 44 45 46 46 45 46 47 47 48 49 47 47 47 48 48 47 47 48 48 50 51 51 51 51 52 52 52 52 52 52 52 53 52 52 52 51 50 50 50 50 49 50 49 48 47 48 48 48 48 49 49 49 49 48 48 47 46 45 45 45 45 45
46 46 45 46 46 47 48 49 50 51 50 49 50 51 52 53 54 55 55 55 56 56 54 53 53 53 54 54 53 52 52 52 53 53 52 51 49 47 47 49 49 50 50 49 49 48 49 48 48 47 47 48 48 48 48 47 47 46 45 44 44 44 44
47 47 47 48 48 49 51 52 53 54 55 57 58 59 59 59 60 61 62 61 60 59 57 55 55 55 54 54 53 53 52 52 52 51 48 46 46 46 47 49 50 50 51 50 51 50 49 47 46 46 47 48 48 47 46 45 45 45 45 44 44 43 42
53 54 55 56 57 58 58 59 60 60 61 62 63 63 62 62 62 63 63 63 62 62 60 58 57 57 57 57 56 54 53 51 50 48 46 47 48 48 49 51 51 50 51 51 50 50 48 47 47 48 49 49 49 48 46 45 45 45 45 44 42 40 40
62 62 63 64 64 64 64 63 63 63 64 64 64 64 64 64 64 64 64 64 64 63 62 61 60 59 59 58 57 56 55 52 50 48 49 52 52 50 50 52 52 51 50 50 50 50 50 50 51 51 51 51 50 50 49 47 47 47 46 44 42 40 41
64 65 65 66 66 66 66 66 65 66 66 66 66 66 66 66 66 66 65 65 66 65 64 64 63 62 61 59 58 57 56 55 54 53 53 53 52 50 52 55 55 54 53 53 53 54 54 54 53 52 51 52 52 51 51 50 50 49 47 45 43 43 44
Wind_Direction
250 256 261 261 258 257 259 265 267 263 255 243 239 240 244 253 265 277 286 290 291 291 292 295 298 301 300 297 292 288 284 279 280 281 280 279 280 278 272 268 270 273 274 273 274 276 275 275 275 275 278 284 286 286 286 289 292 293 294 293 294 294 293
249 252 255 254 253 256 259 262 264 258 246 240 242 247 251 257 266 276 283 288 290 290 287 285 288 295 299 301 299 295 291 284 282 281 280 280 280 280 278 277 276 274 273 273 276 278 276 274 273 275 280 284 286 288 290 292 294 295 295 295 296 295 293
246 245 246 249 253 258 260 257 253 250 244 248 256 262 266 269 275 282 286 288 289 288 287 282 282 287 293 298 299 297 294 288 281 275 273 272 270 269 271 273 273 273 273 276 278 278 278 279 279 279 284 286 286 288 293 295 297 297 297 297 296 295 294
243 244 245 250 258 260 260 256 251 253 261 271 277 279 281 282 285 289 291 290 288 286 284 281 280 284 289 295 298 296 292 288 283 277 272 267 263 262 263 265 266 266 269 274 278 280 283 286 285 285 290 292 289 290 294 296 298 298 297 297 296 294 293
246 246 249 255 260 258 257 256 256 264 274 282 285 287 288 288 289 291 291 289 287 285 282 279 278 282 286 291 295 294 291 287 282 278 274 268 262 260 259 260 261 263 268 271 275 281 286 289 288 287 291 290 288 290 292 294 295 295 295 294 293 291 289
256 251 255 259 258 256 256 258 263 271 278 284 288 289 289 289 289 289 290 291 289 285 280 277 278 281 286 289 290 290 289 286 282 279 275 270 264 260 259 259 259 263 269 273 278 283 285 288 288 287 287 286 287 289 291 293 294 292 290 288 287 287 287
264 256 257 261 261 259 262 264 269 275 282 287 288 286 285 284 285 288 290 294 295 291 285 279 278 282 286 289 287 286 286 284 283 279 275 272 268 265 264 264 265 268 274 280 285 288 289 290 290 289 289 289 289 291 293 293 293 290 287 285 285 286 287
264 261 260 262 264 266 268 269 273 279 283 282 282 282 280 277 277 282 287 293 298 300 295 289 287 287 288 289 289 288 289 289 288 286 282 280 278 277 278 278 280 281 283 287 291 293 293 293 293 293 293 293 294 296 296 293 291 289 287 288 288 289 290
261 263 265 264 265 268 271 272 275 280 277 270 275 282 281 278 279 283 289 295 300 301 302 299 295 293 293 295 296 298 298 298 297 296 295 294 292 292 291 290 290 289 288 288 291 292 291 291 292 292 293 296 298 299 295 289 288 288 288 290 290 290 290
257 261 269 268 268 269 269 271 274 276 268 261 271 279 278 279 282 288 294 299 302 302 302 300 296 294 295 297 300 302 303 303 303 302 300 299 297 295 293 292 291 291 290 290 290 290 290 291 292 291 292 295 297 296 292 290 290 290 289 289 288 289 290
253 254 264 269 272 271 270 270 270 270 262 258 267 274 274 277 279 285 293 296 299 300 300 298 296 295 297 299 302 304 305 305 305 304 301 299 297 294 293 292 291 291 291 290 290 289 290 291 291 291 292 292 291 291 291 291 291 291 290 290 290 289 289
256 248 254 264 273 277 272 268 266 264 257 255 262 267 269 272 273 277 284 288 290 292 292 293 293 294 297 299 302 304 305 306 305 304 302 300 297 295 293 292 291 292 291 290 289 289 289 288 288 288 288 288 288 288 288 288 289 290 290 290 290 290 290
260 247 250 258 268 276 272 264 261 258 251 251 256 260 263 266 269 272 276 279 281 283 284 287 287 288 290 291 295 297 299 300 301 301 302 300 298 295 294 292 291 290 289 288 287 286 285 285 284 284 284 285 285 285 285 286 287 287 288 288 287 287 289
265 250 249 253 258 266 265 259 256 251 247 250 254 257 260 263 266 268 271 274 276 278 279 280 281 282 283 285 287 290 293 297 299 300 301 300 299 297 295 293 291 289 286 284 283 282 282 282 282 282 283 284 285 285 285 285 285 283 283 283 284 285 287
270 254 249 250 252 257 258 255 251 248 249 253 256 259 262 265 268 268 268 269 269 272 273 274 276 278 280 281 283 285 289 294 297 299 300 300 300 299 297 295 292 289 287 284 283 282 281 281 280 281 281 282 283 282 282 282 281 281 280 280 281 284 285
266 253 247 248 249 253 255 253 251 250 253 255 257 260 263 264 265 265 266 266 265 266 266 268 271 272 275 276 277 279 282 286 289 292 294 295 296 296 295 293 291 290 288 286 285 283 282 282 281 280 280 280 280 279 278 279 279 278 279 280 281 282 283
259 248 245 247 249 252 252 251 252 253 252 253 255 257 259 260 261 261 261 262 264 263 262 263 264 266 269 270 271 273 274 277 281 284 286 289 290 291 290 289 289 288 287 285 283 281 280 279 278 278 278 277 277 277 278 279 278 276 276 277 279 280 281
261 253 250 253 254 251 248 246 247 247 247 249 252 254 255 257 257 258 258 260 262 262 261 260 259 262 264 266 267 269 269 271 273 275 278 280 283 285 286 286 285 285 284 282 280 277 277 277 275 274 275 274 273 274 276 276 275 274 274 274 276 277 278
262 258 258 258 254 248 245 242 241 243 245 248 251 253 255 255 255 256 258 260 262 264 264 263 261 261 262 264 266 266 267 267 267 267 268 272 278 282 284 285 285 284 283 281 279 277 276 276 274 272 274 273 271 272 275 275 274 275 276 276 276 277 279
259 259 260 257 250 245 243 241 241 244 247 249 252 254 255 256 256 257 259 261 263 265 267 265 261 259 261 265 268 270 270 269 266 264 265 270 277 281 284 285 285 284 283 282 282 281 279 278 276 274 275 275 273 273 274 275 275 276 278 279 279 280 281
262 261 258 252 246 242 242 242 243 247 251 253 254 254 255 257 258 260 262 264 265 266 267 262 257 256 261 266 271 276 277 275 272 271 272 275 279 282 283 283 283 283 283 283 283 282 281 281 281 279 279 279 277 275 274 274 275 276 278 280 281 282 282
259 256 251 245 241 241 243 246 248 252 256 257 254 253 255 257 260 261 263 265 266 266 265 261 258 260 264 268 273 277 279 280 280 279 280 283 285 285 284 284 285 284 282 281 282 282 281 282 282 281 280 279 278 276 275 274 274 275 277 279 280 280 281
254 251 248 246 246 249 252 255 257 259 263 262 255 252 254 257 260 262 263 265 265 265 265 263 262 265 268 270 274 276 277 280 281 281 282 285 287 287 287 286 286 284 281 281 280 279 280 282 282 281 279 279 279 277 275 273 273 274 276 277 278 278 278
254 250 248 248 251 255 258 260 261 261 264 265 261 255 254 256 259 261 263 264 264 265 265 265 266 269 270 270 272 274 276 278 279 280 282 284 286 286 286 286 284 282 281 281 279 277 279 281 281 280 279 281 280 276 273 272 271 273 274 275 276 277 278
253 251 249 249 252 256 258 259 260 261 263 265 265 261 257 258 260 262 264 265 266 267 267 268 270 271 271 272 273 274 276 276 278 279 280 281 281 280 280 280 281 279 279 280 281 281 280 280 279 278 278 281 280 276 272 272 272 272 274 276 276 277 279
254 252 251 251 253 256 257 257 258 260 263 264 265 265 263 264 266 266 266 267 269 269 269 269 271 272 272 273 273 273 274 275 276 277 277 277 278 277 277 278 279 279 278 280 282 282 281 282 282 279 277 278 278 276 274 274 273 272 274 276 277 280 282
252 252 252 253 254 256 257 257 258 261 265 269 271 272 272 272 272 271 270 270 271 271 271 272 274 274 274 274 273 274 275 275 276 276 276 276 276 276 277 278 279 279 280 281 281 280 280 282 283 282 280 278 276 275 274 274 274 274 276 278 279 282 284
252 253 254 255 256 256 258 260 262 265 268 271 273 274 275 274 273 272 272 272 272 272 272 273 274 275 275 275 274 274 274 274 274 274 274 275 275 275 276 276 277 279 280 281 280 279 278 279 279 280 280 279 276 275 275 276 279 281 282 282 283 284 285
255 255 256 255 254 255 256 257 259 261 263 265 267 269 270 270 270 270 270 271 271 272 272 273 272 272 272 273 272 271 270 270 272 274 274 273 275 276 276 276 277 279 280 280 280 279 278 278 278 277 277 277 277 278 280 283 286 287 287 286 286 286 286
259 258 258 257 255 254 254 254 255 256 259 263 265 267 268 268 269 269 268 269 270 271 272 273 272 270 269 269 270 271 272 271 273 274 275 274 274 275 276 277 277 277 278 279 280 280 279 277 276 275 276 278 279 281 284 287 288 288 288 288 287 287 287
263 261 260 259 256 255 254 253 253 257 264 269 270 269 269 268 267 266 266 268 270 272 274 274 272 270 269 269 271 273 273 274 274 275 274 274 274 274 275 276 275 276 277 278 279 278 277 277 277 277 279 281 283 284 286 286 287 287 286 286 286 286 287
263 262 260 258 257 256 256 256 258 263 269 271 270 271 270 268 267 267 267 268 271 273 275 274 272 271 271 272 273 274 274 275 275 275 274 274 274 272 272 273 273 274 276 277 277 276 276 276 278 279 281 283 284 286 286 286 286 286 286 286 286 285 286
257 257 256 256 256 258 260 262 265 268 269 268 270 273 272 270 270 270 270 271 272 274 275 274 273 274 274 273 274 275 276 276 275 275 275 274 272 272 273 273 273 273 274 275 274 274 275 276 277 280 282 283 284 285 286 286 286 286 286 286 286 286 286
254 254 255 258 262 265 267 269 270 271 271 271 273 275 274 272 271 271 272 272 273 274 275 275 275 276 275 275 276 277 277 275 275 275 272 269 270 272 273 272 271 272 273 272 272 273 274 275 278 281 282 283 284 284 284 284 284 285 285 286 286 286 287
263 263 264 267 269 271 273 274 275 275 275 275 275 275 274 274 273 273 273 274 275 276 277 277 277 276 275 276 277 277 277 275 273 271 267 266 270 273 272 271 270 270 270 270 270 271 274 277 280 283 283 283 283 283 283 282 282 283 284 284 284 285 287
270 270 270 271 272 273 275 275 275 275 275 275 275 275 275 275 275 275 275 275 276 276 276 276 276 276 277 277 277 277 276 273 269 266 265 267 270 270 268 267 267 267 268 268 270 273 276 279 281 282 282 282 283 282 282 281 281 282 282 281 281 284 287
271 271 272 272 273 274 274 275 275 275 275 275 275 275 275 275 275 275 275 276 276 276 276 276 277 277 277 277 276 275 274 270 267 266 266 268 268 266 263 263 264 265 267 269 272 275 277 279 280 279 279 280 281 281 281 281 281 282 280 278 280 285 287
Height
5780 5781 5782 5783 5783 5783 5783 5783 5782 5782 5782 5782 5782 5782 5782 5783 5783 5783 5784 5784 5785 5785 5786 5786 5786 5786 5786 5786 5787 5787 5787 5787 5786 5785 5785 5785 5786 5787 5788 5788 5789 5790 5791 5791 5792 5793 5792 5792 5791 5790 5789 5789 5789 5789 5790 5790 5791 5792 5792 5792 5792 5793 5793
5778 5780 5781 5781 5782 5781 5781 5781 5781 5781 5781 5782 5782 5782 5782 5782 5782 5783 5783 5784 5784 5784 5785 5785 5785 5785 5784 5785 5785 5785 5785 5784 5784 5784 5784 5784 5785 5785 5785 5785 5787 5789 5789 5790 5791 5791 5790 5790 5789 5789 5788 5788 5787 5787 5787 5788 5788 5789 5790 5789 5790 5790 5791
5777 5778 5778 5779 5779 5779 5779 5779 5780 5780 5781 5781 5781 5781 5781 5781 5781 5781 5782 5782 5783 5783 5784 5784 5784 5784 5783 5783 5783 5783 5783 5783 5783 5783 5783 5783 5783 5783 5784 5784 5786 5787 5788 5788 5788 5788 5788 5788 5787 5787 5787 5787 5786 5786 5786 5786 5786 5786 5787 5787 5787 5787 5788
5775 5776 5776 5777 5777 5777 5778 5778 5778 5779 5779 5780 5780 5780 5780 5780 5780 5780 5780 5781 5781 5782 5782 5782 5783 5782 5782 5782 5781 5781 5781 5781 5781 5781 5782 5782 5782 5782 5783 5784 5785 5786 5786 5786 5786 5786 5786 5786 5785 5785 5785 5785 5785 5785 5785 5784 5784 5784 5784 5785 5785 5785 5785
5773 5774 5775 5775 5776 5776 5776 5776 5777 5777 5778 5778 5778 5778 5778 5778 5778 5779 5779 5779 5779 5780 5780 5781 5781 5781 5781 5780 5780 5780 5780 5780 5780 5780 5780 5780 5781 5781 5782 5783 5784 5784 5783 5783 5783 5783 5782 5783 5782 5782 5783 5783 5783 5783 5783 5783 5783 5783 5782 5782 5783 5783 5782
5772 5772 5774 5774 5774 5775 5775 5775 5775 5776 5776 5776 5776 5776 5776 5776 5776 5777 5777 5777 5777 5777 5778 5778 5779 5779 5779 5779 5779 5778 5778 5778 5778 5779 5779 5779 5779 5780 5781 5781 5781 5781 5780 5780 5780 5780 5779 5779 5780 5780 5781 5781 5781 5781 5781 5781 5781 5781 5781 5781 5780 5780 5780
5770 5771 5772 5773 5773 5773 5773 5773 5773 5774 5774 5774 5774 5774 5774 5774 5774 5774 5775 5775 5775 5775 5775 5775 5776 5776 5776 5777 5777 5777 5777 5777 5777 5777 5777 5777 5777 5777 5778 5778 5778 5778 5777 5777 5777 5777 5776 5777 5777 5777 5777 5778 5778 5779 5779 5779 5779 5779 5779 5779 5779 5778 5778
5768 5769 5770 5771 5771 5772 5772 5772 5772 5772 5772 5772 5772 5772 5772 5772 5772 5772 5772 5772 5772 5772 5772 5772 5773 5773 5774 5774 5774 5775 5775 5775 5775 5775 5774 5774 5774 5774 5774 5774 5774 5774 5774 5774 5774 5774 5774 5774 5775 5775 5775 5775 5775 5776 5776 5777 5777 5777 5777 5777 5777 5777 5776
5766 5767 5767 5768 5769 5770 5770 5771 5771 5770 5770 5770 5771 5771 5770 5770 5770 5770 5770 5770 5770 5770 5770 5770 5770 5771 5771 5772 5772 5773 5773 5773 5772 5772 5772 5771 5771 5771 5771 5771 5771 5772 5772 5772 5772 5773 5773 5773 5773 5773 5773 5773 5773 5774 5774 5774 5775 5775 5775 5775 5775 5775 5775
5763 5764 5765 5765 5766 5767 5768 5768 5769 5769 5769 5769 5769 5769 5769 5769 5768 5768 5768 5769 5768 5768 5768 5768 5769 5769 5769 5770 5770 5771 5771 5771 5771 5771 5770 5770 5770 5770 5770 5770 5770 5770 5771 5771 5771 5772 5772 5771 5771 5771 5771 5771 5772 5772 5772 5772 5773 5773 5773 5773 5773 5773 5773
5760 5761 5762 5763 5764 5765 5765 5766 5767 5767 5767 5767 5767 5767 5767 5767 5767 5767 5767 5767 5767 5767 5767 5767 5767 5767 5767 5768 5768 5769 5769 5770 5770 5770 5769 5769 5769 5769 5769 5769 5769 5769 5769 5770 5770 5770 5770 5770 5770 5770 5770 5770 5770 5771 5771 5771 5771 5771 5771 5771 5771 5771 5771
5757 5758 5759 5760 5762 5762 5763 5764 5765 5765 5765 5765 5765 5765 5766 5765 5765 5765 5766 5766 5766 5766 5766 5766 5766 5766 5766 5766 5767 5767 5768 5768 5768 5768 5768 5768 5768 5768 5768 5768 5768 5768 5768 5768 5768 5768 5768 5768 5768 5768 5769 5769 5769 5769 5769 5769 5769 5769 5769 5769 5769 5769 5770
5755 5755 5756 5758 5759 5760 5760 5761 5762 5762 5763 5763 5763 5764 5764 5764 5764 5764 5764 5764 5764 5764 5764 5764 5764 5764 5765 5765 5765 5766 5766 5766 5767 5767 5767 5767 5767 5767 5767 5767 5767 5767 5767 5767 5767 5767 5767 5767 5767 5767 5767 5767 5768 5768 5768 5768 5768 5768 5767 5768 5768 5768 5768
5752 5752 5753 5755 5757 5758 5758 5759 5759 5760 5760 5761 5761 5761 5762 5762 5762 5762 5762 5762 5763 5763 5763 5763 5763 5763 5763 5763 5763 5764 5764 5765 5765 5766 5766 5766 5766 5766 5766 5766 5766 5766 5766 5766 5766 5766 5766 5766 5766 5766 5766 5766 5766 5766 5766 5766 5766 5766 5766 5766 5766 5766 5766
5749 5750 5751 5752 5754 5755 5756 5756 5757 5757 5758 5758 5759 5759 5759 5760 5760 5760 5760 5760 5761 5761 5761 5761 5761 5761 5761 5762 5762 5762 5762 5763 5764 5764 5764 5765 5765 5765 5765 5765 5765 5765 5764 5764 5764 5764 5764 5765 5765 5765 5765 5765 5765 5765 5765 5765 5765 5764 5764 5764 5764 5764 5764
5745 5746 5748 5750 5751 5752 5753 5753 5754 5755 5755 5756 5756 5757 5757 5757 5758 5758 5758 5758 5758 5759 5759 5759 5759 5760 5760 5760 5760 5760 5761 5761 5762 5762 5763 5763 5763 5763 5763 5763 5763 5763 5763 5763 5763 5763 5763 5763 5763 5763 5763 5763 5763 5763 5762 5762 5762 5762 5762 5762 5762 5762 5761
5741 5743 5745 5746 5747 5749 5750 5750 5751 5752 5753 5753 5754 5754 5755 5755 5755 5756 5756 5756 5756 5757 5757 5757 5758 5758 5758 5759 5759 5759 5759 5759 5760 5760 5761 5761 5761 5761 5761 5761 5761 5761 5761 5761 5761 5761 5761 5761 5761 5761 5761 5761 5760 5760 5760 5759 5760 5759 5759 5759 5759 5759 5758
5737 5739 5741 5742 5744 5745 5746 5747 5748 5748 5749 5750 5750 5751 5752 5752 5753 5753 5754 5754 5754 5755 5755 5755 5756 5756 5757 5757 5757 5757 5758 5758 5758 5758 5759 5759 5759 5759 5759 5759 5759 5759 5759 5759 5759 5758 5758 5758 5759 5758 5758 5758 5758 5757 5757 5757 5756 5756 5757 5757 5756 5756 5756
5734 5736 5737 5739 5740 5742 5743 5744 5744 5744 5745 5746 5747 5748 5749 5750 5750 5751 5751 5752 5752 5753 5754 5754 5754 5755 5755 5756 5756 5756 5756 5756 5756 5756 5756 5756 5757 5757 5757 5757 5757 5756 5756 5756 5756 5756 5755 5755 5755 5755 5755 5756 5755 5754 5753 5753 5753 5753 5753 5753 5753 5753 5753
5733 5733 5734 5736 5737 5738 5740 5740 5741 5741 5742 5743 5744 5745 5746 5747 5747 5748 5749 5749 5750 5751 5752 5752 5752 5753 5753 5754 5754 5754 5754 5754 5754 5754 5754 5754 5754 5754 5754 5754 5753 5753 5753 5752 5752 5752 5752 5752 5752 5752 5752 5752 5752 5751 5750 5750 5750 5749 5749 5749 5749 5749 5749
5732 5731 5732 5733 5735 5736 5737 5737 5738 5739 5740 5741 5742 5742 5743 5744 5745 5745 5746 5747 5748 5748 5749 5749 5750 5750 5751 5751 5752 5752 5753 5752 5752 5752 5752 5752 5752 5751 5751 5750 5750 5749 5749 5749 5749 5749 5749 5748 5749 5749 5749 5748 5748 5748 5747 5747 5746 5746 5746 5745 5745 5745 5745
5729 5729 5730 5731 5732 5733 5734 5734 5735 5736 5737 5738 5739 5739 5740 5741 5742 5743 5744 5744 5745 5746 5746 5746 5747 5747 5748 5749 5749 5750 5750 5750 5750 5750 5750 5749 5749 5748 5747 5746 5746 5746 5746 5746 5746 5745 5745 5745 5745 5745 5745 5744 5744 5744 5743 5743 5743 5743 5742 5742 5742 5741 5741
5726 5727 5728 5729 5730 5730 5731 5732 5732 5732 5734 5735 5735 5736 5737 5738 5739 5740 5741 5742 5742 5743 5743 5743 5744 5744 5745 5745 5746 5747 5747 5747 5747 5747 5747 5747 5746 5744 5742 5741 5742 5741 5741 5741 5741 5740 5741 5741 5741 5741 5740 5740 5739 5739 5739 5739 5739 5738 5738 5738 5738 5737 5737
5723 5724 5725 5726 5727 5728 5728 5729 5729 5729 5730 5731 5732 5733 5734 5735 5736 5738 5738 5739 5739 5739 5739 5740 5740 5741 5741 5742 5742 5743 5743 5743 5743 5743 5744 5743 5742 5741 5738 5736 5736 5736 5736 5736 5736 5737 5737 5737 5737 5737 5737 5736 5735 5734 5734 5734 5734 5734 5734 5733 5733 5733 5732
5720 5721 5722 5724 5724 5725 5725 5725 5725 5726 5726 5727 5728 5730 5731 5732 5733 5734 5735 5735 5735 5735 5736 5736 5736 5736 5737 5738 5738 5739 5740 5740 5740 5740 5740 5740 5739 5737 5734 5732 5732 5732 5732 5732 5732 5733 5733 5733 5733 5732 5732 5732 5731 5730 5729 5729 5729 5729 5729 5729 5729 5729 5728
5717 5718 5719 5720 5721 5722 5722 5722 5723 5723 5723 5723 5724 5726 5727 5728 5729 5730 5731 5731 5731 5731 5732 5732 5732 5732 5733 5734 5734 5735 5735 5736 5736 5735 5735 5735 5734 5731 5728 5728 5728 5727 5727 5728 5728 5728 5728 5728 5728 5728 5728 5727 5727 5726 5725 5725 5725 5725 5725 5725 5725 5724 5723
5713 5714 5715 5716 5717 5718 5718 5718 5720 5720 5719 5718 5718 5720 5722 5723 5724 5725 5726 5727 5727 5727 5727 5727 5727 5727 5727 5728 5729 5730 5730 5731 5731 5730 5730 5730 5729 5726 5724 5724 5724 5722 5722 5723 5723 5723 5723 5723 5723 5723 5723 5723 5723 5722 5721 5720 5720 5720 5720 5720 5720 5720 5719
5709 5710 5711 5712 5713 5714 5714 5714 5715 5715 5714 5713 5712 5714 5715 5717 5718 5719 5721 5721 5721 5722 5723 5722 5722 5721 5721 5722 5723 5724 5724 5725 5725 5724 5725 5725 5723 5721 5720 5720 5719 5718 5717 5717 5718 5718 5718 5718 5718 5718 5719 5719 5718 5717 5716 5716 5716 5715 5715 5715 5715 5715 5714
5704 5705 5706 5707 5708 5709 5710 5710 5710 5710 5710 5710 5710 5710 5711 5712 5713 5714 5715 5716 5716 5716 5717 5717 5716 5715 5715 5715 5716 5717 5718 5719 5719 5718 5719 5719 5716 5715 5715 5715 5714 5713 5712 5712 5712 5712 5712 5712 5713 5713 5713 5713 5713 5712 5711 5711 5711 5710 5710 5710 5709 5709 5708
5699 5700 5700 5701 5702 5703 5704 5704 5705 5705 5706 5706 5706 5707 5707 5708 5709 5709 5710 5710 5710 5710 5711 5711 5710 5709 5709 5709 5710 5711 5712 5713 5713 5713 5713 5713 5711 5710 5709 5708 5708 5708 5707 5706 5706 5707 5706 5707 5707 5707 5707 5708 5708 5707 5706 5706 5705 5705 5705 5704 5703 5703 5702
5693 5694 5694 5695 5696 5697 5698 5698 5699 5699 5700 5701 5701 5701 5701 5702 5703 5703 5704 5704 5704 5704 5705 5704 5703 5702 5702 5703 5703 5704 5705 5706 5707 5707 5706 5706 5706 5705 5703 5702 5703 5703 5701 5700 5700 5700 5700 5700 5701 5701 5701 5702 5702 5700 5700 5700 5700 5699 5699 5698 5697 5697 5696
5687 5688 5688 5689 5690 5691 5691 5692 5693 5693 5694 5694 5694 5694 5695 5695 5696 5697 5697 5698 5698 5697 5698 5697 5696 5695 5696 5697 5697 5697 5698 5699 5699 5699 5699 5698 5698 5699 5697 5696 5696 5696 5695 5694 5694 5694 5694 5694 5695 5695 5695 5695 5695 5694 5693 5693 5693 5693 5692 5692 5691 5691 5690
5681 5682 5682 5683 5683 5684 5684 5685 5686 5687 5687 5687 5687 5688 5688 5689 5689 5689 5690 5690 5691 5690 5690 5690 5689 5689 5689 5689 5690 5690 5690 5691 5692 5692 5691 5690 5691 5691 5691 5690 5689 5689 5689 5689 5688 5688 5688 5688 5689 5689 5689 5689 5689 5688 5687 5686 5687 5686 5686 5685 5685 5684 5683
5675 5675 5676 5676 5676 5677 5677 5677 5678 5679 5679 5680 5680 5680 5680 5681 5681 5681 5681 5682 5682 5682 5682 5682 5682 5682 5682 5682 5682 5682 5683 5684 5684 5685 5685 5684 5684 5685 5684 5683 5682 5682 5682 5682 5682 5682 5682 5683 5683 5683 5683 5682 5683 5683 5682 5681 5680 5680 5680 5679 5679 5678 5677
5668 5668 5668 5668 5668 5669 5669 5669 5669 5670 5671 5671 5671 5671 5671 5672 5672 5672 5672 5673 5673 5674 5674 5674 5674 5674 5674 5674 5674 5674 5675 5677 5677 5677 5678 5677 5677 5679 5679 5676 5675 5676 5676 5675 5676 5676 5676 5676 5676 5676 5676 5676 5677 5677 5677 5676 5675 5675 5674 5673 5673 5673 5671
5659 5659 5659 5659 5659 5659 5660 5660 5660 5661 5661 5661 5662 5662 5662 5662 5663 5663 5663 5663 5664 5665 5666 5666 5666 5666 5666 5667 5667 5666 5667 5668 5669 5670 5671 5670 5671 5674 5673 5669 5668 5669 5669 5668 5669 5670 5670 5670 5670 5670 5670 5670 5670 5670 5670 5670 5670 5669 5669 5668 5667 5667 5666
5650 5650 5650 5650 5650 5650 5651 5651 5651 5652 5652 5651 5651 5652 5652 5653 5653 5654 5654 5654 5654 5656 5657 5657 5657 5657 5657 5658 5658 5658 5659 5659 5659 5661 5663 5663 5664 5666 5665 5661 5661 5662 5662 5662 5663 5663 5663 5664 5664 5665 5665 5664 5664 5664 5664 5664 5664 5663 5663 5662 5661 5660 5659